Location: Poughquag
(41.6090°N, 73.6820°W)
Time: 11:46:55
(UTC-04:00)

Transit 4A - Pass Details

Date: 05 June 2020
Orbit: 866 x 978 km, 66.8° (Epoch: 06 July)

Event Time Altitude Azimuth Distance (km) Brightness Sun altitude
Rises 02:16:50 0° 238° (WSW) 3,442 - -22.9°
Reaches altitude 10° 02:19:33 10° 248° (WSW) 2,514 - -22.8°
Exits shadow 02:21:50 21° 265° (W) 1,848 9.2 -22.6°
Maximum altitude 02:24:42 32° 311° (NW) 1,458 9.0 -22.4°
Drops below altitude 10° 02:30:00 10° 14° (NNE) 2,571 11.3 -22.0°
Sets 02:32:49 0° 25° (NNE) 3,532 12.5 -21.8°
